Wenatchee, WA
on Saturday, November 24, 2012

Saturday
Previous Day Next Day
Daily Summary
 ActualAverageRecord
Temperature
Mean Temperature °F 31°F  
Max Temperature 43°F 37°F 64°F (1959)
Min Temperature 31°F 25°F -5°F (1985)
Degree Days
Heating Degree Days 28 34  
Month to date heating degree days 631 714  
Since 1 July heating degree days 1430 1670  
Cooling Degree Days 0 0  
Month to date cooling degree days 0 0  
Year to date cooling degree days 294 249  
Moisture
Dew Point 33°F   
Average Humidity 82    
Maximum Humidity 93    
Minimum Humidity 58    
Precipitation
Precipitation T in 0.08 in 1.32 in (1965)
Month to date precipitation 3.07 1.71  
Year to date precipitation 20.17 14.05  
Snow
Snow 0.00 in 0.40 in in ()
Month to date snowfall 7.2 5.1  
Since 1 July snowfall 7.2 5.2  
Since 1 September snowfall 7.2 5.2  
Snow Depth 0.00 in   
Wind
Wind Speed 3 mph   
Max Wind Speed 54 mph   
Max Gust Speed 67 mph   
Visibility 7 miles   
Events Fog   

Key: T is trace of precipitation, MM is missing value
Source: NWS Daily Summary
Time(PST)TemperatureDew PointHumidity Pressure Visibility Wind DirectionWind SpeedGust SpeedPrecipitationEvents Conditions
12:55 AM 36.0°F 33.1°F 89% 30.06 in 6.0 miles Calm Calm - N/A   Partly Cloudy
1:03 AM 37.4°F 33.8°F 87% 30.04 in 7.0 miles North - - N/A   Clear
1:10 AM 37.4°F 33.8°F 87% 30.04 in 9.0 miles Calm Calm - N/A   Partly Cloudy
1:55 AM 36.0°F 33.1°F 89% 30.07 in 10.0 miles Calm Calm - N/A   Clear
2:55 AM 37.0°F 32.0°F 82% 30.10 in 10.0 miles NW 3.5 mph - N/A   Partly Cloudy
3:43 AM 35.6°F 32.0°F 87% 30.08 in 4.0 miles Calm Calm - N/A   Scattered Clouds
3:46 AM 35.6°F 33.8°F 93% 30.08 in 1.8 miles Calm Calm - N/A   Mostly Cloudy
3:51 AM 35.6°F 32.0°F 87% 30.08 in 0.8 miles Calm Calm - N/A   Mist
3:55 AM 35.1°F 32.0°F 89% 30.11 in 0.5 miles Calm Calm - N/A Fog Fog
4:06 AM 35.6°F 33.8°F 93% 30.08 in 0.5 miles Calm Calm - N/A Fog Fog
4:13 AM 35.6°F 33.8°F 93% 30.08 in 0.2 miles Calm Calm - N/A Fog Fog
4:55 AM 33.1°F 30.0°F 89% 30.13 in 0.2 miles Calm Calm - N/A Fog Fog
5:02 AM 33.8°F 30.2°F 87% 30.10 in 1.0 miles Calm Calm - N/A   Mist
5:14 AM 33.8°F 30.2°F 87% 30.11 in 0.5 miles Calm Calm - N/A Fog Fog
5:29 AM 35.6°F 32.0°F 87% 30.11 in 3.0 miles NW 4.6 mph - N/A   Overcast
5:55 AM 35.1°F 32.0°F 89% 30.16 in 6.0 miles North 4.6 mph - N/A   Overcast
6:55 AM 34.0°F 32.0°F 92% 30.17 in 6.0 miles NNW 3.5 mph - N/A   Overcast
7:23 AM 35.6°F 32.0°F 87% 30.15 in 6.0 miles NNW 5.8 mph - N/A   Overcast
7:50 AM 35.6°F 32.0°F 87% 30.15 in 5.0 miles North 4.6 mph - N/A   Mostly Cloudy
7:55 AM 35.1°F 33.1°F 92% 30.19 in 7.0 miles North 3.5 mph - N/A   Mostly Cloudy
8:55 AM 37.0°F 35.1°F 93% 30.21 in 4.0 miles Calm Calm - N/A   Mostly Cloudy
9:03 AM 37.4°F 35.6°F 93% 30.18 in 4.0 miles Calm Calm - N/A   Mostly Cloudy
9:25 AM 37.4°F 35.6°F 93% 30.19 in 4.0 miles Variable 3.5 mph - N/A   Mostly Cloudy
9:33 AM 37.4°F 33.8°F 87% 30.20 in 5.0 miles North - - N/A   Mostly Cloudy
9:55 AM 37.9°F 34.0°F 86% 30.22 in 9.0 miles North - - N/A   Mostly Cloudy
10:05 AM 37.4°F 35.6°F 93% 30.20 in 9.0 miles North - - N/A   Scattered Clouds
10:55 AM 43.0°F 37.0°F 80% 30.21 in 10.0 miles North - - N/A   Overcast
11:55 AM 44.1°F 36.0°F 73% 30.19 in 10.0 miles West 5.8 mph - N/A   Clear
12:55 PM 45.0°F 36.0°F 71% 30.18 in 10.0 miles West 5.8 mph - N/A   Clear
1:48 PM 46.4°F 35.6°F 66% 30.14 in 10.0 miles North - - N/A   Clear
1:55 PM 46.9°F 35.1°F 63% 30.16 in 10.0 miles SSE 54.1 mph 66.7 mph N/A   Clear
2:55 PM 46.9°F 34.0°F 61% 30.16 in 10.0 miles WNW 6.9 mph - N/A   Clear
3:55 PM 45.0°F 30.9°F 58% 30.16 in 10.0 miles North - - N/A   Clear
4:55 PM 41.0°F 30.0°F 65% 30.17 in 10.0 miles North 3.5 mph - N/A   Clear
5:55 PM 39.9°F 30.0°F 68% 30.17 in 10.0 miles North 4.6 mph - N/A   Clear
6:55 PM 41.0°F 28.0°F 60% 30.17 in 10.0 miles NNW 4.6 mph - N/A   Clear
7:55 PM 37.0°F 30.0°F 76% 30.17 in 10.0 miles West 12.7 mph - N/A   Clear
8:55 PM 37.0°F 28.9°F 73% 30.17 in 10.0 miles WNW 3.5 mph - N/A   Clear
9:55 PM 35.1°F 28.9°F 78% 30.18 in 10.0 miles WNW 6.9 mph - N/A   Clear
10:55 PM 35.1°F 28.9°F 78% 30.18 in 10.0 miles NW 8.1 mph - N/A   Clear
11:55 PM 34.0°F 28.0°F 79% 30.19 in 10.0 miles West 9.2 mph - N/A   Clear
Moon Phase
Nov. 24 Nov. 28 Dec. 06 Dec. 13 Dec. 20
Sunrise:07:19 AM (PST) Moon Rise:02:13 PM (PST)11/24
Sunset:04:16 PM (PST) Moon Set:03:29 AM (PST)11/24

Copyright © 2014 The Weather Underground, Inc.